RYR8EB EPKK-LBBG

Flight info

Callsign RYR8EB
Flight time 1h 34m
Altitude 37000
Route REGTO T195 RAZEC B7 KSC DCT KEKED DCT KARIL DCT LUGEB DCT MATEL T555 NESAR
Aircraft B38M/M-SADE3FGILRWY/SB1

Departure

Time 2026-05-01 11:38
Airport Kraków John Paul II International Airport (EPKK)

Arrival

Time 2026-05-01 13:12
Airport Burgas Airport (LBBG)
Time Latitude Longitude Altitude Speed Heading
2026-05-01 11:13 50.07298 19.79795 803 ft 0 kts 168°
2026-05-01 11:29 50.07304 19.79792 803 ft 3 kts 168°
2026-05-01 11:30 50.07334 19.79782 803 ft 2 kts 168°
2026-05-01 11:30 50.07347 19.79778 803 ft 3 kts 173°
2026-05-01 11:30 50.07370 19.79778 803 ft 3 kts 188°
2026-05-01 11:30 50.07394 19.79782 803 ft 3 kts 178°
2026-05-01 11:31 50.07403 19.79781 803 ft 0 kts 168°
2026-05-01 11:33 50.07387 19.79791 804 ft 7 kts 144°
2026-05-01 11:34 50.07388 19.79942 803 ft 20 kts 78°
2026-05-01 11:34 50.07416 19.80143 803 ft 20 kts 78°
2026-05-01 11:34 50.07446 19.80341 803 ft 14 kts 64°
2026-05-01 11:34 50.07536 19.80407 803 ft 16 kts 17°
2026-05-01 11:35 50.07648 19.80402 803 ft 17 kts 348°
2026-05-01 11:35 50.07773 19.80359 803 ft 19 kts 347°
2026-05-01 11:35 50.07841 19.80337 803 ft 0 kts 348°
2026-05-01 11:36 50.07876 19.80325 803 ft 11 kts 348°
2026-05-01 11:36 50.07975 19.80292 803 ft 16 kts 348°
2026-05-01 11:36 50.08018 19.80253 803 ft 5 kts 266°
2026-05-01 11:37 50.08009 19.80182 803 ft 11 kts 258°
2026-05-01 11:37 50.07947 19.79730 803 ft 81 kts 258°
2026-05-01 11:37 50.07776 19.78510 805 ft 147 kts 257°
2026-05-01 11:37 50.07545 19.76845 1372 ft 154 kts 258°
2026-05-01 11:38 50.07319 19.75243 2318 ft 151 kts 261°
2026-05-01 11:38 50.07090 19.73628 3104 ft 150 kts 260°
2026-05-01 11:38 50.06861 19.72029 3961 ft 153 kts 263°
2026-05-01 11:38 50.06521 19.70356 4538 ft 178 kts 239°
2026-05-01 11:39 50.05437 19.69287 5149 ft 199 kts 189°
2026-05-01 11:39 50.04093 19.69708 5755 ft 206 kts 146°
2026-05-01 11:39 50.03098 19.71387 6257 ft 217 kts 118°
2026-05-01 11:39 50.02103 19.73285 6852 ft 238 kts 134°
2026-05-01 11:40 50.00819 19.75071 7389 ft 257 kts 133°
2026-05-01 11:40 49.99455 19.77037 7918 ft 277 kts 132°
2026-05-01 11:40 49.98017 19.79146 8564 ft 289 kts 132°
2026-05-01 11:40 49.96569 19.81312 9563 ft 290 kts 130°
2026-05-01 11:41 49.95114 19.83516 10434 ft 294 kts 130°
2026-05-01 11:41 49.93616 19.85792 11008 ft 310 kts 129°
2026-05-01 11:41 49.91975 19.88116 11508 ft 330 kts 138°
2026-05-01 11:41 49.90036 19.90098 12295 ft 336 kts 140°
2026-05-01 11:42 49.88079 19.92119 13129 ft 340 kts 140°
2026-05-01 11:42 49.86100 19.94175 13950 ft 345 kts 139°
2026-05-01 11:42 49.84093 19.96261 14680 ft 349 kts 139°
2026-05-01 11:42 49.82066 19.98369 15443 ft 352 kts 139°
2026-05-01 11:43 49.80023 20.00494 16207 ft 356 kts 139°
2026-05-01 11:43 49.77957 20.02640 16961 ft 359 kts 139°
2026-05-01 11:43 49.75871 20.04809 17667 ft 364 kts 139°
2026-05-01 11:44 49.71626 20.09205 19038 ft 371 kts 139°
2026-05-01 11:44 49.69507 20.11397 19664 ft 373 kts 139°
2026-05-01 11:44 49.67341 20.13635 20246 ft 376 kts 138°
2026-05-01 11:44 49.65160 20.15886 20813 ft 379 kts 138°
2026-05-01 11:45 49.62964 20.18152 21388 ft 382 kts 138°
2026-05-01 11:45 49.60745 20.20440 21970 ft 385 kts 137°
2026-05-01 11:45 49.58508 20.22741 22562 ft 388 kts 137°
2026-05-01 11:45 49.56254 20.25059 23108 ft 391 kts 137°
2026-05-01 11:46 49.53988 20.27387 23688 ft 393 kts 137°
2026-05-01 11:46 49.51698 20.29735 24175 ft 396 kts 137°
2026-05-01 11:46 49.49398 20.32089 24641 ft 399 kts 137°
2026-05-01 11:46 49.47075 20.34464 25105 ft 402 kts 137°
2026-05-01 11:47 49.44740 20.36850 25557 ft 405 kts 137°
2026-05-01 11:47 49.42391 20.39246 26027 ft 408 kts 137°
2026-05-01 11:47 49.40024 20.41662 26464 ft 411 kts 137°
2026-05-01 11:47 49.37629 20.44099 26875 ft 414 kts 137°
2026-05-01 11:48 49.35224 20.46549 27367 ft 416 kts 137°
2026-05-01 11:48 49.32801 20.49011 27788 ft 420 kts 137°
2026-05-01 11:48 49.30358 20.51487 28188 ft 422 kts 137°
2026-05-01 11:48 49.27903 20.53973 28601 ft 424 kts 137°
2026-05-01 11:49 49.25430 20.56476 28990 ft 427 kts 137°
2026-05-01 11:49 49.22941 20.58992 29376 ft 430 kts 137°
2026-05-01 11:49 49.20446 20.61511 29769 ft 433 kts 137°
2026-05-01 11:49 49.17925 20.64054 30143 ft 436 kts 137°
2026-05-01 11:50 49.15385 20.66614 30487 ft 439 kts 138°
2026-05-01 11:50 49.12831 20.69184 30837 ft 441 kts 138°
2026-05-01 11:50 49.10294 20.71732 31132 ft 444 kts 138°
2026-05-01 11:50 49.07675 20.74360 31486 ft 446 kts 137°
2026-05-01 11:51 49.05072 20.76968 31775 ft 449 kts 137°
2026-05-01 11:51 49.02456 20.79585 32054 ft 451 kts 138°
2026-05-01 11:51 48.99869 20.82171 32356 ft 453 kts 137°
2026-05-01 11:51 48.97225 20.84811 32649 ft 456 kts 137°
2026-05-01 11:52 48.94564 20.87464 32914 ft 459 kts 137°
2026-05-01 11:52 48.91892 20.90123 33250 ft 459 kts 137°
2026-05-01 11:52 48.89211 20.92789 33508 ft 462 kts 138°
2026-05-01 11:52 48.86511 20.95472 33788 ft 465 kts 137°
2026-05-01 11:53 48.83800 20.98161 34078 ft 467 kts 138°
2026-05-01 11:53 48.81077 21.00859 34401 ft 467 kts 137°
2026-05-01 11:53 48.78356 21.03550 34709 ft 467 kts 138°
2026-05-01 11:53 48.75634 21.06236 35024 ft 467 kts 138°
2026-05-01 11:54 48.72912 21.08923 35291 ft 468 kts 138°
2026-05-01 11:54 48.70183 21.11610 35611 ft 467 kts 138°
2026-05-01 11:54 48.67460 21.14293 35893 ft 468 kts 139°
2026-05-01 11:54 48.64731 21.16973 36213 ft 467 kts 139°
2026-05-01 11:55 48.62008 21.19647 36496 ft 467 kts 139°
2026-05-01 11:55 48.59281 21.22319 36770 ft 467 kts 139°
2026-05-01 11:55 48.56561 21.24983 37035 ft 467 kts 139°
2026-05-01 11:55 48.53836 21.27649 37297 ft 467 kts 139°
2026-05-01 11:56 48.51378 21.30731 37284 ft 451 kts 124°
2026-05-01 11:56 48.49261 21.34212 37334 ft 453 kts 126°
2026-05-01 11:56 48.44910 21.41074 37333 ft 452 kts 125°
2026-05-01 11:57 48.40592 21.47977 37340 ft 453 kts 125°
2026-05-01 11:57 48.36281 21.54871 37331 ft 452 kts 125°
2026-05-01 11:58 48.31968 21.61755 37329 ft 452 kts 125°
2026-05-01 11:59 48.25495 21.72050 37330 ft 452 kts 125°
2026-05-01 11:59 48.21171 21.78905 37331 ft 452 kts 125°
2026-05-01 12:00 48.14675 21.89168 37346 ft 453 kts 126°
2026-05-01 12:01 48.08165 21.99412 37331 ft 453 kts 126°
2026-05-01 12:01 48.03823 22.06224 37329 ft 453 kts 126°
2026-05-01 12:02 47.99473 22.13030 37322 ft 453 kts 126°
2026-05-01 12:02 47.95150 22.19778 37339 ft 453 kts 126°
2026-05-01 12:03 47.90792 22.26560 37327 ft 453 kts 126°
2026-05-01 12:03 47.86432 22.33329 37325 ft 453 kts 126°
2026-05-01 12:04 47.82067 22.40091 37319 ft 453 kts 126°
2026-05-01 12:04 47.77827 22.46968 37353 ft 450 kts 123°
2026-05-01 12:05 47.73671 22.53935 37318 ft 450 kts 124°
2026-05-01 12:05 47.67416 22.64350 37315 ft 451 kts 124°
2026-05-01 12:06 47.63234 22.71290 37316 ft 451 kts 124°
2026-05-01 12:06 47.59046 22.78223 37335 ft 452 kts 125°
2026-05-01 12:07 47.54851 22.85149 37312 ft 453 kts 125°
2026-05-01 12:07 47.50638 22.92087 37310 ft 453 kts 125°
2026-05-01 12:08 47.46422 22.99013 37303 ft 453 kts 125°
2026-05-01 12:08 47.42203 23.05925 37305 ft 453 kts 125°
2026-05-01 12:09 47.37977 23.12830 37303 ft 455 kts 126°
2026-05-01 12:09 47.33731 23.19749 37299 ft 455 kts 126°
2026-05-01 12:10 47.27349 23.30119 37292 ft 455 kts 126°
2026-05-01 12:11 47.20983 23.40419 37302 ft 456 kts 127°
2026-05-01 12:11 47.16709 23.47313 37293 ft 456 kts 127°
2026-05-01 12:12 47.12431 23.54196 37288 ft 456 kts 127°
2026-05-01 12:12 47.08146 23.61073 37288 ft 456 kts 127°
2026-05-01 12:13 47.03866 23.67925 37277 ft 457 kts 128°
2026-05-01 12:13 46.99572 23.74781 37283 ft 457 kts 128°
2026-05-01 12:14 46.95264 23.81640 37277 ft 457 kts 128°
2026-05-01 12:14 46.90953 23.88488 37270 ft 458 kts 128°
2026-05-01 12:15 46.86645 23.95314 37294 ft 458 kts 129°
2026-05-01 12:15 46.82318 24.02152 37276 ft 458 kts 129°
2026-05-01 12:16 46.77987 24.08979 37270 ft 458 kts 129°
2026-05-01 12:16 46.73654 24.15792 37274 ft 458 kts 129°
2026-05-01 12:17 46.70051 24.21444 37269 ft 458 kts 129°
2026-05-01 12:17 46.65706 24.28244 37274 ft 459 kts 129°
2026-05-01 12:18 46.61349 24.35045 37267 ft 460 kts 129°
2026-05-01 12:18 46.56988 24.41836 37272 ft 460 kts 130°
2026-05-01 12:19 46.52620 24.48622 37269 ft 459 kts 129°
2026-05-01 12:19 46.48250 24.55391 37265 ft 460 kts 130°
2026-05-01 12:20 46.43876 24.62151 37274 ft 460 kts 130°
2026-05-01 12:20 46.39499 24.68898 37271 ft 459 kts 130°
2026-05-01 12:21 46.35123 24.75627 37267 ft 459 kts 130°
2026-05-01 12:21 46.30734 24.82357 37259 ft 461 kts 130°
2026-05-01 12:22 46.26324 24.89106 37271 ft 462 kts 130°
2026-05-01 12:22 46.21937 24.95801 37274 ft 462 kts 130°
2026-05-01 12:23 46.17516 25.02531 37269 ft 462 kts 130°
2026-05-01 12:23 46.13088 25.09255 37275 ft 463 kts 131°
2026-05-01 12:24 46.08649 25.15979 37267 ft 463 kts 131°
2026-05-01 12:24 46.04205 25.22693 37278 ft 463 kts 131°
2026-05-01 12:25 45.97541 25.32732 37291 ft 463 kts 131°
2026-05-01 12:26 45.93081 25.39429 37272 ft 464 kts 131°
2026-05-01 12:26 45.86378 25.49463 37283 ft 464 kts 131°
2026-05-01 12:27 45.79676 25.59459 37295 ft 464 kts 132°
2026-05-01 12:28 45.72955 25.69444 37294 ft 464 kts 132°
2026-05-01 12:29 45.66227 25.79404 37294 ft 464 kts 132°
2026-05-01 12:29 45.59486 25.89348 37301 ft 466 kts 133°
2026-05-01 12:30 45.52711 25.99305 37295 ft 466 kts 133°
2026-05-01 12:31 45.48182 26.05939 37308 ft 467 kts 133°
2026-05-01 12:31 45.43653 26.12558 37307 ft 466 kts 134°
2026-05-01 12:32 45.39122 26.19162 37291 ft 466 kts 133°
2026-05-01 12:32 45.32320 26.29048 37294 ft 467 kts 134°
2026-05-01 12:33 45.27774 26.35635 37290 ft 467 kts 134°
2026-05-01 12:33 45.23214 26.42226 37288 ft 468 kts 134°
2026-05-01 12:34 45.18642 26.48817 37291 ft 468 kts 134°
2026-05-01 12:34 45.14080 26.55381 37297 ft 468 kts 134°
2026-05-01 12:35 45.09506 26.61944 37292 ft 468 kts 134°
2026-05-01 12:35 45.04926 26.68501 37294 ft 468 kts 134°
2026-05-01 12:36 45.00374 26.75000 37297 ft 468 kts 134°
2026-05-01 12:36 44.95788 26.81533 37294 ft 468 kts 135°
2026-05-01 12:37 44.91206 26.88045 37300 ft 468 kts 135°
2026-05-01 12:37 44.86624 26.94542 37294 ft 467 kts 135°
2026-05-01 12:38 44.82044 27.01019 37297 ft 467 kts 135°
2026-05-01 12:38 44.77455 27.07494 37298 ft 467 kts 135°
2026-05-01 12:39 44.72863 27.13958 37298 ft 467 kts 135°
2026-05-01 12:39 44.68274 27.20402 37294 ft 467 kts 135°
2026-05-01 12:40 44.63675 27.26846 37285 ft 467 kts 135°
2026-05-01 12:40 44.59077 27.33272 37292 ft 467 kts 135°
2026-05-01 12:41 44.54466 27.39701 37291 ft 468 kts 135°
2026-05-01 12:41 44.49847 27.46126 37292 ft 468 kts 136°
2026-05-01 12:42 44.45228 27.52536 37292 ft 468 kts 136°
2026-05-01 12:42 44.40599 27.58945 37287 ft 468 kts 136°
2026-05-01 12:43 44.35971 27.65338 37288 ft 468 kts 136°
2026-05-01 12:43 44.31352 27.71702 37272 ft 467 kts 136°
2026-05-01 12:44 44.26758 27.78017 37282 ft 467 kts 136°
2026-05-01 12:45 44.17465 27.90748 37280 ft 468 kts 137°
2026-05-01 12:45 44.12824 27.97087 37272 ft 467 kts 137°
2026-05-01 12:46 44.08208 28.03378 37271 ft 467 kts 137°
2026-05-01 12:46 44.03562 28.09695 37269 ft 467 kts 137°
2026-05-01 12:47 43.98863 28.15907 37079 ft 460 kts 145°
2026-05-01 12:47 43.96102 28.18029 36368 ft 451 kts 165°
2026-05-01 12:47 43.93062 28.18731 35513 ft 440 kts 184°
2026-05-01 12:48 43.90050 28.18325 34714 ft 431 kts 195°
2026-05-01 12:48 43.87148 28.17383 33972 ft 424 kts 196°
2026-05-01 12:48 43.84307 28.16394 33185 ft 418 kts 196°
2026-05-01 12:48 43.81494 28.15451 32323 ft 415 kts 196°
2026-05-01 12:49 43.78696 28.14536 31496 ft 411 kts 196°
2026-05-01 12:49 43.75921 28.13647 30681 ft 407 kts 195°
2026-05-01 12:49 43.73172 28.12772 29825 ft 403 kts 195°
2026-05-01 12:49 43.70452 28.11905 28926 ft 399 kts 195°
2026-05-01 12:50 43.67759 28.11048 28073 ft 395 kts 196°
2026-05-01 12:50 43.65090 28.10201 27252 ft 391 kts 196°
2026-05-01 12:50 43.62453 28.09362 26463 ft 387 kts 196°
2026-05-01 12:50 43.59843 28.08533 25709 ft 383 kts 196°
2026-05-01 12:51 43.57257 28.07712 24974 ft 379 kts 196°
2026-05-01 12:51 43.54708 28.06900 24459 ft 374 kts 196°
2026-05-01 12:51 43.49673 28.05300 23687 ft 369 kts 196°
2026-05-01 12:52 43.47180 28.04511 23256 ft 366 kts 196°
2026-05-01 12:52 43.42280 28.02962 22491 ft 352 kts 196°
2026-05-01 12:52 43.39937 28.02217 22162 ft 339 kts 196°
2026-05-01 12:53 43.35518 28.00810 21518 ft 321 kts 196°
2026-05-01 12:53 43.33346 28.00125 21174 ft 319 kts 195°
2026-05-01 12:53 43.31187 27.99446 20837 ft 317 kts 195°
2026-05-01 12:54 43.29030 27.98772 20530 ft 321 kts 195°
2026-05-01 12:54 43.24627 27.97402 19878 ft 326 kts 195°
2026-05-01 12:54 43.22409 27.96710 19552 ft 326 kts 195°
2026-05-01 12:55 43.18010 27.95337 18894 ft 322 kts 194°
2026-05-01 12:55 43.15831 27.94657 18569 ft 320 kts 194°
2026-05-01 12:55 43.13664 27.93984 18206 ft 318 kts 195°
2026-05-01 12:56 43.11518 27.93317 17874 ft 316 kts 195°
2026-05-01 12:56 43.09388 27.92655 17539 ft 313 kts 195°
2026-05-01 12:56 43.07279 27.92000 17230 ft 309 kts 194°
2026-05-01 12:56 43.05188 27.91351 16919 ft 306 kts 195°
2026-05-01 12:57 43.03118 27.90708 16610 ft 303 kts 194°
2026-05-01 12:57 42.99041 27.89444 16002 ft 298 kts 194°
2026-05-01 12:57 42.97020 27.88819 15702 ft 300 kts 194°
2026-05-01 12:58 42.94963 27.88186 15393 ft 305 kts 194°
2026-05-01 12:58 42.92881 27.87545 15080 ft 308 kts 194°
2026-05-01 12:58 42.90792 27.86899 14771 ft 309 kts 194°
2026-05-01 12:59 42.86588 27.85606 14040 ft 312 kts 194°
2026-05-01 12:59 42.84451 27.84949 13533 ft 316 kts 193°
2026-05-01 12:59 42.80193 27.83639 12836 ft 311 kts 193°
2026-05-01 13:00 42.76023 27.82357 12228 ft 304 kts 193°
2026-05-01 13:00 42.73974 27.81727 11917 ft 301 kts 193°
2026-05-01 13:01 42.69920 27.80482 11309 ft 296 kts 193°
2026-05-01 13:01 42.68593 27.80075 11114 ft 294 kts 193°
2026-05-01 13:01 42.64485 27.77261 10302 ft 288 kts 225°
2026-05-01 13:02 42.63066 27.75375 10054 ft 283 kts 225°
2026-05-01 13:07 42.41237 27.38561 3551 ft 209 kts 315°
2026-05-01 13:07 42.42222 27.37100 3341 ft 209 kts 316°
2026-05-01 13:07 42.43314 27.35942 3109 ft 194 kts 343°
2026-05-01 13:08 42.44603 27.35883 2855 ft 184 kts 19°
2026-05-01 13:08 42.45662 27.36761 2669 ft 177 kts 41°
2026-05-01 13:08 42.46547 27.37860 2503 ft 167 kts 42°
2026-05-01 13:08 42.47371 27.38901 2325 ft 158 kts 43°
2026-05-01 13:09 42.48166 27.39920 2158 ft 156 kts 43°
2026-05-01 13:09 42.48944 27.40926 1976 ft 154 kts 43°
2026-05-01 13:09 42.49719 27.41934 1791 ft 155 kts 43°
2026-05-01 13:09 42.50485 27.42927 1684 ft 148 kts 42°
2026-05-01 13:10 42.51216 27.43872 1488 ft 144 kts 42°
2026-05-01 13:10 42.51940 27.44814 1274 ft 144 kts 42°
2026-05-01 13:10 42.52642 27.45741 1098 ft 137 kts 43°
2026-05-01 13:10 42.53316 27.46631 922 ft 134 kts 44°
2026-05-01 13:11 42.53986 27.47522 736 ft 135 kts 45°
2026-05-01 13:11 42.54652 27.48396 520 ft 138 kts 44°
2026-05-01 13:11 42.55336 27.49295 362 ft 133 kts 44°
2026-05-01 13:11 42.55996 27.50178 207 ft 133 kts 44°
2026-05-01 13:12 42.56592 27.50969 175 ft 94 kts 45°
2026-05-01 13:12 42.56860 27.51325 176 ft 12 kts 44°
2026-05-01 13:12 42.56866 27.51437 176 ft 15 kts 133°
2026-05-01 13:12 42.56806 27.51517 176 ft 13 kts 135°
2026-05-01 13:13 42.56738 27.51607 176 ft 13 kts 144°
2026-05-01 13:13 42.56673 27.51577 176 ft 10 kts 229°
2026-05-01 13:13 42.56620 27.51495 176 ft 13 kts 228°
2026-05-01 13:13 42.56553 27.51393 176 ft 16 kts 228°
2026-05-01 13:14 42.56498 27.51308 178 ft 11 kts 229°
2026-05-01 13:14 42.56445 27.51259 176 ft 6 kts 160°
2026-05-01 13:14 42.56415 27.51298 176 ft 7 kts 139°
2026-05-01 13:14 42.56392 27.51326 176 ft 0 kts 139°